Starlink 32226

operational
NORAD ID: 60426 Int'l Des: 2024-144 Owner: SPXS Country: US Constellation: starlink
LEOCIRCULAR

About Starlink 32226

Description loading...

Live Position

Loading 3D Globe...

Upcoming Passes

Altitude History

Altitude vs Time

uPlot chart will show altitude changes over time

Two-Line Element Set

1 60426U 24144B 25344.13041301 -.00000710 00000-0 -11843-4 0 9995
2 60426 53.1632 273.3861 0001447 83.7072 276.4094 15.30181052 75597
Epoch: Dec 10, 2025 • Age: 15 hours

Current Status

Altitude 486.7 km
Velocity 7.62 km/s
Sub-Earth Point -33.95°S, 127.65°E
Launch Date Aug 12, 2024
Age 1.3 years
Type internet

Technical Details

Classification Payload
Mass 730.00 kg
Dry Mass 700.00 kg
Total Mass 730.00 kg
Length 0.30 m
Diameter 4.10 m
Span 29.00 m
Shape Box + pan
Manufacturer SPXS
Bus Type Starlink V2M
Phase Status In Orbit
Owner/State SPXS/US

Large Constellations

Loading constellations...